| time (UTC) | temp C | wind direction | speed KPH | gust KPH | rain 1hr cm | rain 24hr cm | rain mn cm | humidity % | barometer mb |
| 20260502191503 | 13 | 157 | 1.6 | 12.9 | 0.00 | 0.10 | 0.10 | 81 | 1009.6 |
| 20260502191003 | 12 | 287 | 3.2 | 12.9 | 0.00 | 0.10 | 0.10 | 80 | 1009.8 |
| 20260502190503 | 12 | 132 | 0.0 | 11.3 | 0.00 | 0.10 | 0.10 | 80 | 1009.8 |
| 20260502190004 | 12 | 113 | 3.2 | 16.1 | 0.00 | 0.10 | 0.10 | 80 | 1009.9 |
| 20260502185507 | 12 | 241 | 1.6 | 16.1 | 0.00 | 0.10 | 0.10 | 81 | 1009.9 |
| 20260502185004 | 12 | 257 | 3.2 | 11.3 | 0.00 | 0.10 | 0.10 | 80 | 1010.0 |
| 20260502184512 | 12 | 322 | 1.6 | 9.7 | 0.00 | 0.10 | 0.10 | 83 | 1010.1 |
| 20260502184005 | 12 | 188 | 1.6 | 9.7 | 0.00 | 0.10 | 0.10 | 82 | 1010.0 |
| 20260502183503 | 12 | 24 | 3.2 | 9.7 | 0.00 | 0.10 | 0.10 | 83 | 1010.0 |
| 20260502183012 | 12 | 44 | 3.2 | 8.0 | 0.00 | 0.10 | 0.10 | 83 | 1010.0 |
| 20260502182508 | 12 | 309 | 1.6 | 16.1 | 0.00 | 0.10 | 0.10 | 83 | 1010.1 |
| 20260502182002 | 12 | 291 | 1.6 | 16.1 | 0.00 | 0.10 | 0.10 | 84 | 1010.2 |
| 20260502181504 | 12 | 260 | 6.4 | 16.1 | 0.00 | 0.10 | 0.10 | 85 | 1010.1 |
| 20260502181005 | 12 | 304 | 1.6 | 9.7 | 0.00 | 0.10 | 0.10 | 87 | 1010.1 |
| 20260502180503 | 11 | 242 | 3.2 | 9.7 | 0.00 | 0.10 | 0.10 | 88 | 1010.1 |
| 20260502170508 | 10 | 71 | 1.6 | 6.4 | 0.05 | 0.10 | 0.10 | 90 | 1010.8 |
| 20260502164004 | 10 | 294 | 0.0 | 3.2 | 0.05 | 0.08 | 0.08 | 88 | 1010.9 |
| 20260502163504 | 10 | 243 | 1.6 | 3.2 | 0.05 | 0.08 | 0.08 | 88 | 1010.9 |
| 20260502163004 | 10 | 313 | 0.0 | 4.8 | 0.05 | 0.08 | 0.08 | 87 | 1010.9 |
| 20260502162507 | 10 | 350 | 1.6 | 4.8 | 0.03 | 0.05 | 0.05 | 88 | 1011.0 |
| 20260502162006 | 10 | 242 | 0.0 | 1.6 | 0.03 | 0.05 | 0.05 | 87 | 1011.1 |
| 20260502161503 | 10 | 315 | 0.0 | 3.2 | 0.03 | 0.05 | 0.05 | 86 | 1011.1 |
| 20260502161006 | 10 | 322 | 0.0 | 3.2 | 0.03 | 0.05 | 0.05 | 86 | 1011.2 |
| 20260502160506 | 11 | 261 | 0.0 | 3.2 | 0.03 | 0.05 | 0.05 | 86 | 1011.1 |
| 20260502152003 | 11 | 267 | 0.0 | 6.4 | 0.00 | 0.03 | 0.03 | 80 | 1011.5 |
| 20260502151509 | 11 | 233 | 0.0 | 6.4 | 0.00 | 0.03 | 0.03 | 82 | 1011.5 |
| 20260502151004 | 11 | 9 | 1.6 | 4.8 | 0.00 | 0.03 | 0.03 | 81 | 1011.4 |
| 20260502150505 | 11 | 304 | 0.0 | 8.0 | 0.00 | 0.03 | 0.03 | 81 | 1011.3 |
| 20260502130507 | 9 | 208 | 1.6 | 6.4 | 0.03 | 0.03 | 0.03 | 92 | 1011.5 |
| 20260502123505 | 8 | 220 | 0.0 | 1.6 | 0.03 | 0.03 | 0.03 | 91 | 1011.7 |
| 20260502123018 | 8 | 220 | 0.0 | 4.8 | 0.03 | 0.03 | 0.03 | 91 | 1012.0 |
| 20260502122508 | 8 | 171 | 0.0 | 4.8 | 0.03 | 0.03 | 0.03 | 90 | 1012.1 |
| 20260502122008 | 8 | 128 | 0.0 | 6.4 | 0.03 | 0.03 | 0.03 | 90 | 1011.8 |
| 20260502121514 | 8 | 82 | 1.6 | 6.4 | 0.03 | 0.03 | 0.03 | 90 | 1011.7 |
| 20260502121005 | 8 | 40 | 1.6 | 4.8 | 0.03 | 0.03 | 0.03 | 89 | 1011.8 |
| 20260502120507 | 8 | 61 | 1.6 | 4.8 | 0.00 | 0.00 | 0.00 | 89 | 1011.9 |
| 20260502115505 | 8 | 342 | 1.6 | 4.8 | 0.00 | 0.00 | 0.00 | 90 | 1012.1 |
| 20260502115007 | 8 | 292 | 1.6 | 4.8 | 0.00 | 0.00 | 0.00 | 90 | 1012.0 |
| 20260502114525 | 8 | 329 | 0.0 | 4.8 | 0.00 | 0.00 | 0.00 | 90 | 1012.0 |
| 20260502114008 | 8 | 333 | 1.6 | 4.8 | 0.00 | 0.00 | 0.00 | 90 | 1011.9 |
| 20260502113504 | 8 | 347 | 0.0 | 4.8 | 0.00 | 0.00 | 0.00 | 91 | 1011.9 |
| 20260502113019 | 8 | 360 | 1.6 | 4.8 | 0.00 | 0.00 | 0.00 | 91 | 1011.8 |
| 20260502112503 | 7 | 5 | 0.0 | 6.4 | 0.00 | 0.00 | 0.00 | 91 | 1011.5 |
| 20260502112012 | 7 | 5 | 1.6 | 6.4 | 0.00 | 0.00 | 0.00 | 91 | 1011.7 |
| 20260502111520 | 7 | 277 | 0.0 | 0.0 | 0.00 | 0.00 | 0.00 | 91 | 1011.7 |
| 20260502111007 | 7 | 277 | 0.0 | 1.6 | 0.00 | 0.00 | 0.00 | 91 | 1011.5 |
| 20260502110507 | 7 | 277 | 0.0 | 1.6 | 0.00 | 0.00 | 0.00 | 92 | 1011.3 |
| 20260502110019 | 7 | 296 | 0.0 | 1.6 | 0.00 | 0.00 | 0.00 | 92 | 1011.3 |
| 20260502105509 | 7 | 196 | 0.0 | 3.2 | 0.00 | 0.00 | 0.00 | 92 | 1011.3 |
| 20260502105010 | 7 | 196 | 0.0 | 3.2 | 0.00 | 0.00 | 0.00 | 92 | 1011.5 |
| 20260502104535 | 7 | 190 | 0.0 | 0.0 | 0.00 | 0.00 | 0.00 | 92 | 1011.0 |
| 20260502104008 | 7 | 190 | 0.0 | 3.2 | 0.00 | 0.00 | 0.00 | 91 | 1011.0 |
| 20260502103511 | 7 | 190 | 0.0 | 3.2 | 0.00 | 0.00 | 0.00 | 91 | 1010.8 |
| 20260502103026 | 7 | 238 | 0.0 | 3.2 | 0.00 | 0.00 | 0.00 | 91 | 1011.0 |
| 20260502102506 | 6 | 270 | 0.0 | 0.0 | 0.00 | 0.00 | 0.00 | 91 | 1011.1 |
| 20260502102003 | 6 | 270 | 0.0 | 0.0 | 0.00 | 0.00 | 0.00 | 91 | 1011.2 |
| 20260502101508 | 6 | 270 | 0.0 | 0.0 | 0.00 | 0.00 | 0.00 | 91 | 1011.2 |
| 20260502101002 | 6 | 270 | 0.0 | 0.0 | 0.00 | 0.00 | 0.00 | 91 | 1011.0 |
| 20260502100502 | 6 | 274 | 0.0 | 0.0 | 0.00 | 0.00 | 0.00 | 91 | 1011.1 |
| 20260502091511 | 7 | 296 | 0.0 | 1.6 | 0.00 | 0.00 | 0.00 | 91 | 1010.7 |
| 20260502091005 | 7 | 296 | 0.0 | 1.6 | 0.00 | 0.00 | 0.00 | 90 | 1010.6 |
| 20260502090502 | 7 | 296 | 0.0 | 0.0 | 0.00 | 0.00 | 0.00 | 90 | 1010.5 |
| 20260502071508 | 7 | 338 | 0.0 | 1.6 | 0.00 | 0.00 | 0.00 | 84 | 1010.8 |
| 20260502071004 | 7 | 338 | 0.0 | 1.6 | 0.00 | 0.00 | 0.00 | 83 | 1010.8 |
| 20260502070504 | 7 | 338 | 0.0 | 0.0 | 0.00 | 0.00 | 0.00 | 83 | 1010.7 |
| 20260502070008 | 7 | 338 | 0.0 | 0.0 | 0.00 | 0.00 | 0.00 | 82 | 1010.8 |
| 20260502065504 | 7 | 338 | 0.0 | 0.0 | 0.00 | 0.00 | 0.00 | 82 | 1010.9 |
| 20260502065005 | 8 | 338 | 0.0 | 0.0 | 0.00 | 0.00 | 0.00 | 82 | 1010.9 |
| 20260502064516 | 8 | 338 | 0.0 | 1.6 | 0.00 | 0.00 | 0.00 | 82 | 1010.9 |
| 20260502064003 | 8 | 338 | 0.0 | 1.6 | 0.00 | 0.00 | 0.00 | 82 | 1010.8 |
| 20260502063507 | 8 | 338 | 0.0 | 1.6 | 0.00 | 0.00 | 0.00 | 81 | 1010.9 |
| 20260502063024 | 8 | 338 | 0.0 | 1.6 | 0.00 | 0.00 | 0.00 | 81 | 1010.9 |
| 20260502062507 | 8 | 338 | 0.0 | 1.6 | 0.00 | 0.00 | 0.00 | 81 | 1010.8 |
| 20260502062006 | 8 | 338 | 0.0 | 1.6 | 0.00 | 0.00 | 0.00 | 81 | 1011.0 |
| 20260502061520 | 8 | 338 | 0.0 | 1.6 | 0.00 | 0.00 | 0.00 | 81 | 1011.1 |
| 20260502061006 | 8 | 344 | 0.0 | 0.0 | 0.00 | 0.00 | 0.00 | 80 | 1011.2 |
| 20260502060507 | 8 | 344 | 0.0 | 0.0 | 0.00 | 0.00 | 0.00 | 80 | 1011.2 |
| 20260502060015 | 8 | 344 | 0.0 | 0.0 | 0.00 | 0.00 | 0.00 | 79 | 1011.3 |
| 20260502055506 | 8 | 344 | 0.0 | 0.0 | 0.00 | 0.00 | 0.00 | 80 | 1011.3 |
| 20260502055006 | 8 | 344 | 0.0 | 3.2 | 0.00 | 0.00 | 0.00 | 80 | 1011.2 |
| 20260502054512 | 8 | 344 | 0.0 | 3.2 | 0.00 | 0.00 | 0.00 | 80 | 1011.3 |
| 20260502054003 | 8 | 348 | 0.0 | 3.2 | 0.00 | 0.00 | 0.00 | 80 | 1011.2 |
| 20260502053503 | 8 | 348 | 0.0 | 3.2 | 0.00 | 0.00 | 0.00 | 80 | 1011.4 |
| 20260502053018 | 8 | 348 | 0.0 | 3.2 | 0.00 | 0.00 | 0.00 | 80 | 1011.4 |
| 20260502052506 | 8 | 340 | 0.0 | 3.2 | 0.00 | 0.00 | 0.00 | 80 | 1011.3 |
| 20260502052007 | 8 | 340 | 0.0 | 4.8 | 0.00 | 0.00 | 0.00 | 79 | 1011.4 |
| 20260502051526 | 8 | 340 | 0.0 | 4.8 | 0.00 | 0.00 | 0.00 | 78 | 1011.3 |
| 20260502051008 | 8 | 352 | 0.0 | 3.2 | 0.00 | 0.00 | 0.00 | 78 | 1011.4 |
| 20260502050507 | 8 | 9 | 0.0 | 4.8 | 0.00 | 0.00 | 0.00 | 78 | 1011.4 |
| 20260502050020 | 8 | 9 | 1.6 | 4.8 | 0.00 | 0.00 | 0.00 | 78 | 1011.5 |
| 20260502045507 | 8 | 351 | 0.0 | 4.8 | 0.00 | 0.00 | 0.00 | 78 | 1011.5 |
| 20260502045007 | 8 | 360 | 1.6 | 4.8 | 0.00 | 0.00 | 0.00 | 78 | 1011.6 |
| 20260502044521 | 8 | 327 | 0.0 | 3.2 | 0.00 | 0.00 | 0.00 | 79 | 1011.6 |
| 20260502044007 | 8 | 324 | 0.0 | 3.2 | 0.00 | 0.00 | 0.00 | 78 | 1011.6 |
| 20260502043507 | 8 | 324 | 0.0 | 1.6 | 0.00 | 0.00 | 0.00 | 77 | 1011.4 |
| 20260502043016 | 8 | 324 | 0.0 | 1.6 | 0.00 | 0.00 | 0.00 | 77 | 1011.5 |
| 20260502042504 | 8 | 324 | 0.0 | 3.2 | 0.00 | 0.00 | 0.00 | 76 | 1011.5 |
| 20260502042007 | 8 | 324 | 0.0 | 3.2 | 0.00 | 0.00 | 0.00 | 75 | 1011.4 |
| 20260502041517 | 8 | 335 | 0.0 | 1.6 | 0.00 | 0.00 | 0.00 | 75 | 1011.5 |
| 20260502041007 | 8 | 335 | 0.0 | 1.6 | 0.00 | 0.00 | 0.00 | 76 | 1011.5 |
| 20260502040506 | 8 | 335 | 0.0 | 3.2 | 0.00 | 0.00 | 0.00 | 75 | 1011.6 |
| 20260502040032 | 8 | 335 | 0.0 | 3.2 | 0.00 | 0.00 | 0.00 | 74 | 1011.7 |
| 20260502035504 | 8 | 335 | 0.0 | 0.0 | 0.00 | 0.00 | 0.00 | 74 | 1011.7 |
| 20260502035011 | 8 | 335 | 0.0 | 1.6 | 0.00 | 0.00 | 0.00 | 74 | 1011.7 |
| 20260502034505 | 9 | 335 | 0.0 | 3.2 | 0.00 | 0.00 | 0.00 | 73 | 1011.6 |
| 20260502034003 | 9 | 335 | 1.6 | 3.2 | 0.00 | 0.00 | 0.00 | 73 | 1011.5 |
| 20260502033504 | 9 | 335 | 0.0 | 3.2 | 0.00 | 0.00 | 0.00 | 73 | 1011.6 |
| 20260502033006 | 9 | 335 | 0.0 | 3.2 | 0.00 | 0.00 | 0.00 | 72 | 1011.6 |
| 20260502032504 | 9 | 312 | 0.0 | 1.6 | 0.00 | 0.00 | 0.00 | 72 | 1011.6 |
| 20260502032006 | 9 | 313 | 0.0 | 3.2 | 0.00 | 0.00 | 0.00 | 72 | 1011.6 |
| 20260502031516 | 9 | 319 | 0.0 | 3.2 | 0.00 | 0.00 | 0.00 | 72 | 1011.6 |
| 20260502031004 | 9 | 338 | 0.0 | 3.2 | 0.00 | 0.00 | 0.00 | 72 | 1011.7 |
| 20260502030504 | 9 | 333 | 0.0 | 3.2 | 0.00 | 0.00 | 0.00 | 72 | 1011.7 |
| 20260502030020 | 9 | 305 | 0.0 | 3.2 | 0.00 | 0.00 | 0.00 | 72 | 1011.8 |
| 20260502025504 | 9 | 337 | 0.0 | 3.2 | 0.00 | 0.00 | 0.00 | 71 | 1011.8 |
| 20260502025003 | 9 | 337 | 0.0 | 4.8 | 0.00 | 0.00 | 0.00 | 72 | 1011.8 |
| 20260502024514 | 9 | 348 | 1.6 | 4.8 | 0.00 | 0.00 | 0.00 | 72 | 1011.8 |
| 20260502024003 | 10 | 342 | 1.6 | 8.0 | 0.00 | 0.00 | 0.00 | 72 | 1011.8 |
| 20260502023503 | 10 | 346 | 1.6 | 8.0 | 0.00 | 0.00 | 0.00 | 70 | 1011.7 |
| 20260502023009 | 10 | 343 | 1.6 | 6.4 | 0.00 | 0.00 | 0.00 | 70 | 1011.6 |
| 20260502022504 | 10 | 217 | 0.0 | 6.4 | 0.00 | 0.00 | 0.00 | 69 | 1011.5 |
| 20260502022002 | 10 | 270 | 0.0 | 6.4 | 0.00 | 0.00 | 0.00 | 69 | 1011.6 |
| 20260502021508 | 10 | 350 | 0.0 | 9.7 | 0.00 | 0.00 | 0.00 | 68 | 1011.6 |
| 20260502021004 | 10 | 344 | 1.6 | 9.7 | 0.00 | 0.00 | 0.00 | 67 | 1011.7 |
| 20260502020504 | 10 | 97 | 1.6 | 6.4 | 0.00 | 0.00 | 0.00 | 68 | 1011.7 |
| 20260502020004 | 10 | 272 | 1.6 | 6.4 | 0.00 | 0.00 | 0.00 | 66 | 1011.7 |
| 20260502015504 | 10 | 292 | 1.6 | 4.8 | 0.00 | 0.00 | 0.00 | 67 | 1011.7 |
| 20260502015003 | 10 | 343 | 0.0 | 4.8 | 0.00 | 0.00 | 0.00 | 67 | 1011.7 |
| 20260502014532 | 10 | 333 | 1.6 | 4.8 | 0.00 | 0.00 | 0.00 | 66 | 1011.7 |
| 20260502014002 | 10 | 348 | 1.6 | 4.8 | 0.00 | 0.00 | 0.00 | 64 | 1011.6 |
| 20260502013504 | 10 | 345 | 0.0 | 3.2 | 0.00 | 0.00 | 0.00 | 63 | 1011.6 |
| 20260502013018 | 10 | 345 | 0.0 | 3.2 | 0.00 | 0.00 | 0.00 | 61 | 1011.6 |
| 20260502012504 | 10 | 345 | 0.0 | 4.8 | 0.00 | 0.00 | 0.00 | 59 | 1011.5 |
| 20260502012002 | 10 | 345 | 1.6 | 4.8 | 0.00 | 0.00 | 0.00 | 59 | 1011.5 |
| 20260502011507 | 10 | 346 | 0.0 | 6.4 | 0.00 | 0.00 | 0.00 | 58 | 1011.4 |
| 20260502011001 | 11 | 350 | 1.6 | 6.4 | 0.00 | 0.00 | 0.00 | 58 | 1011.3 |
| 20260502010501 | 11 | 300 | 1.6 | 8.0 | 0.00 | 0.00 | 0.00 | 57 | 1011.2 |
| 20260502010010 | 11 | 360 | 3.2 | 12.9 | 0.00 | 0.00 | 0.00 | 59 | 1011.1 |
| 20260502005503 | 11 | 360 | 3.2 | 12.9 | 0.00 | 0.00 | 0.00 | 57 | 1011.1 |
| 20260502005007 | 11 | 360 | 1.6 | 4.8 | 0.00 | 0.00 | 0.00 | 57 | 1011.1 |
| 20260502004508 | 11 | 316 | 0.0 | 3.2 | 0.00 | 0.00 | 0.00 | 55 | 1010.9 |
| 20260502004008 | 11 | 316 | 1.6 | 3.2 | 0.00 | 0.00 | 0.00 | 55 | 1010.8 |
| 20260502003513 | 10 | 344 | 1.6 | 3.2 | 0.00 | 0.00 | 0.00 | 56 | 1010.7 |
| 20260502003027 | 10 | 344 | 1.6 | 4.8 | 0.00 | 0.00 | 0.00 | 56 | 1010.5 |
| 20260502002502 | 10 | 344 | 0.0 | 4.8 | 0.00 | 0.00 | 0.00 | 58 | 1010.4 |
| 20260502002009 | 10 | 347 | 1.6 | 3.2 | 0.00 | 0.00 | 0.00 | 61 | 1010.3 |
| 20260502001522 | 10 | 313 | 1.6 | 3.2 | 0.00 | 0.00 | 0.00 | 56 | 1010.3 |
| 20260502001002 | 11 | 295 | 0.0 | 3.2 | 0.00 | 0.00 | 0.00 | 55 | 1010.2 |
| 20260502000505 | 11 | 352 | 0.0 | 3.2 | 0.00 | 0.00 | 0.00 | 57 | 1010.1 |
| 20260502000007 | 11 | 352 | 0.0 | 3.2 | 0.00 | 0.00 | 0.00 | 54 | 1010.0 |
| 20260501235504 | 12 | 352 | 0.0 | 1.6 | 0.00 | 0.00 | 0.00 | 52 | 1009.9 |
| 20260501235002 | 12 | 352 | 0.0 | 1.6 | 0.00 | 0.00 | 0.00 | 48 | 1009.9 |
| 20260501234513 | 12 | 339 | 0.0 | 0.0 | 0.00 | 0.00 | 0.00 | 50 | 1009.9 |
| 20260501234008 | 12 | 5 | 0.0 | 1.6 | 0.00 | 0.00 | 0.00 | 48 | 1009.8 |
| 20260501233505 | 13 | 5 | 0.0 | 1.6 | 0.00 | 0.00 | 0.00 | 47 | 1009.7 |
| 20260501233012 | 13 | 5 | 0.0 | 1.6 | 0.00 | 0.00 | 0.00 | 46 | 1009.8 |
| 20260501232506 | 13 | 5 | 0.0 | 4.8 | 0.00 | 0.00 | 0.00 | 47 | 1009.7 |
| 20260501232009 | 13 | 5 | 0.0 | 4.8 | 0.00 | 0.00 | 0.00 | 45 | 1009.7 |
| 20260501231513 | 14 | 346 | 0.0 | 6.4 | 0.00 | 0.00 | 0.00 | 45 | 1009.6 |
| 20260501231008 | 14 | 346 | 1.6 | 6.4 | 0.00 | 0.00 | 0.00 | 43 | 1009.4 |
| 20260501230505 | 14 | 352 | 0.0 | 8.0 | 0.00 | 0.00 | 0.00 | 43 | 1009.4 |
| 20260501230026 | 15 | 352 | 1.6 | 9.7 | 0.00 | 0.00 | 0.00 | 42 | 1009.3 |
| 20260501225502 | 15 | 27 | 4.8 | 11.3 | 0.00 | 0.00 | 0.00 | 41 | 1009.2 |
| 20260501225007 | 15 | 343 | 3.2 | 11.3 | 0.00 | 0.00 | 0.00 | 43 | 1009.3 |
| 20260501224527 | 15 | 5 | 1.6 | 8.0 | 0.00 | 0.00 | 0.00 | 41 | 1009.2 |
| 20260501224008 | 15 | 45 | 1.6 | 6.4 | 0.00 | 0.00 | 0.00 | 43 | 1009.2 |
| 20260501223503 | 15 | 360 | 1.6 | 4.8 | 0.00 | 0.00 | 0.00 | 43 | 1009.1 |
| 20260501223012 | 15 | 352 | 1.6 | 4.8 | 0.00 | 0.00 | 0.00 | 42 | 1009.1 |
| 20260501222507 | 15 | 340 | 0.0 | 3.2 | 0.00 | 0.00 | 0.00 | 43 | 1009.0 |
| 20260501222007 | 15 | 50 | 0.0 | 8.0 | 0.00 | 0.00 | 0.00 | 44 | 1009.1 |
| 20260501221516 | 15 | 327 | 1.6 | 8.0 | 0.00 | 0.00 | 0.00 | 42 | 1009.1 |
| 20260501221014 | 15 | 360 | 1.6 | 8.0 | 0.00 | 0.00 | 0.00 | 41 | 1009.1 |
| 20260501220515 | 16 | 343 | 3.2 | 8.0 | 0.00 | 0.00 | 0.00 | 38 | 1009.2 |
| 20260501220021 | 16 | 279 | 3.2 | 6.4 | 0.00 | 0.00 | 0.00 | 38 | 1009.3 |
| 20260501215507 | 16 | 5 | 1.6 | 9.7 | 0.00 | 0.00 | 0.00 | 39 | 1009.2 |
| 20260501215012 | 16 | 334 | 1.6 | 9.7 | 0.00 | 0.00 | 0.00 | 40 | 1009.1 |
| 20260501214529 | 16 | 334 | 3.2 | 6.4 | 0.00 | 0.00 | 0.00 | 41 | 1009.1 |
| 20260501214005 | 16 | 43 | 1.6 | 9.7 | 0.00 | 0.00 | 0.00 | 39 | 1009.0 |
| 20260501213508 | 16 | 48 | 1.6 | 9.7 | 0.00 | 0.00 | 0.00 | 39 | 1009.0 |
| 20260501213027 | 16 | 34 | 3.2 | 8.0 | 0.00 | 0.00 | 0.00 | 37 | 1008.9 |
| 20260501212502 | 17 | 76 | 0.0 | 8.0 | 0.00 | 0.00 | 0.00 | 36 | 1008.9 |
| 20260501212002 | 16 | 16 | 1.6 | 17.7 | 0.00 | 0.00 | 0.00 | 37 | 1008.9 |
| 20260501211503 | 17 | 352 | 4.8 | 17.7 | 0.00 | 0.00 | 0.00 | 36 | 1009.0 |
| 20260501211002 | 17 | 317 | 3.2 | 11.3 | 0.00 | 0.00 | 0.00 | 43 | 1008.9 |
| 20260501210502 | 17 | 304 | 3.2 | 14.5 | 0.00 | 0.00 | 0.00 | 36 | 1008.9 |
| 20260501210005 | 17 | 5 | 3.2 | 19.3 | 0.00 | 0.00 | 0.00 | 41 | 1008.8 |
| 20260501205504 | 17 | 339 | 4.8 | 19.3 | 0.00 | 0.00 | 0.00 | 37 | 1008.8 |
| 20260501205002 | 17 | 15 | 1.6 | 16.1 | 0.00 | 0.00 | 0.00 | 40 | 1008.8 |
| 20260501204504 | 17 | 338 | 4.8 | 12.9 | 0.00 | 0.00 | 0.00 | 37 | 1008.9 |
| 20260501204003 | 17 | 360 | 1.6 | 9.7 | 0.00 | 0.00 | 0.00 | 36 | 1008.7 |
| 20260501203503 | 17 | 320 | 3.2 | 9.7 | 0.00 | 0.00 | 0.00 | 37 | 1008.9 |
| 20260501203007 | 17 | 25 | 1.6 | 11.3 | 0.00 | 0.00 | 0.00 | 36 | 1008.9 |
| 20260501202502 | 17 | 55 | 3.2 | 14.5 | 0.00 | 0.00 | 0.00 | 38 | 1008.7 |
| 20260501202002 | 17 | 53 | 4.8 | 14.5 | 0.00 | 0.00 | 0.00 | 36 | 1008.8 |
| 20260501201502 | 17 | 325 | 4.8 | 12.9 | 0.00 | 0.00 | 0.00 | 39 | 1008.7 |
| 20260501201002 | 17 | 312 | 4.8 | 17.7 | 0.00 | 0.00 | 0.00 | 37 | 1008.7 |
| 20260501200502 | 17 | 80 | 4.8 | 17.7 | 0.00 | 0.00 | 0.00 | 39 | 1008.8 |
| 20260501200008 | 17 | 28 | 3.2 | 11.3 | 0.00 | 0.00 | 0.00 | 41 | 1008.8 |
| 20260501195502 | 17 | 320 | 3.2 | 11.3 | 0.00 | 0.00 | 0.00 | 36 | 1008.7 |
| 20260501195003 | 17 | 323 | 1.6 | 14.5 | 0.00 | 0.00 | 0.00 | 38 | 1008.8 |
| 20260501194504 | 17 | 16 | 4.8 | 14.5 | 0.00 | 0.00 | 0.00 | 40 | 1008.9 |
| 20260501194003 | 17 | 344 | 4.8 | 12.9 | 0.00 | 0.00 | 0.00 | 42 | 1009.0 |
| 20260501193459 | 17 | 49 | 3.2 | 12.9 | 0.00 | 0.00 | 0.00 | 38 | 1009.0 |
| 20260501193005 | 17 | 42 | 4.8 | 12.9 | 0.00 | 0.00 | 0.00 | 36 | 1009.1 |
| 20260501192505 | 17 | 67 | 4.8 | 12.9 | 0.00 | 0.00 | 0.00 | 39 | 1009.1 |
| 20260501192004 | 17 | 58 | 4.8 | 12.9 | 0.00 | 0.00 | 0.00 | 36 | 1009.1 |